Home > Weather > Ludwigshafen > Past weeks

Flag for Germany Past Weather in Ludwigshafen, Rhineland-Palatinate, Germany — Yesterday and Last 2 Weeks

Now
91 °F

Sunny.


Feels Like: 91 °F
Forecast: 68 / 89 °F
Wind: 5 mph from North

Location: Mannheim City

Current Time: Aug 27, 2016 at 3:44:48 PM

Latest Report: Aug 27, 2016 at 2:50 PM


Visibility: 10 mi

Pressure: 30.04 "Hg

Humidity: 36%

Dew Point: 61 °F

Location of LudwigshafenLocation

Past Weather in Ludwigshafen — Graph

°F

Ludwigshafen Temperature Yesterday

Maximum temperature yesterday: 95 °F (at 5:20 PM)
Minimum temperature yesterday: 63 °F (at 5:20 AM)
Average temperature yesterday: 82 °F

High & Low Weather Summary for the Past Weeks

 TemperatureHumidityPressure
High95 °F (Aug 26, 5:20 PM)100% (Aug 19, 5:20 AM)30.39 "Hg (Aug 19, 5:20 AM)
Low54 °F (Aug 18, 6:20 AM)23% (Aug 25, 4:50 PM)29.80 "Hg (Aug 18, 4:20 PM)
Average73 °F61%30.08 "Hg
* Reported Aug 12 2:20 PM — Aug 27 2:20 PM, Ludwigshafen, Weather by CustomWeather, © 2016

Note: Actual official high and low records may vary slightly from our data, if they occured in-between our weather recording intervals... More about our weather records

Advertising

Ludwigshafen Weather History for the Previous 24 Hours

Scroll right to see more
 ConditionsComfort  
Time TempWeatherWind HumidityBarometerVisibility
2:20 PM
Sat, Aug 27
91 °FSunny.3 mph36%30.04 "Hg10 mi
1:50 PM91 °FSunny.3 mph38%30.04 "Hg10 mi
1:20 PM90 °FSunny.3 mph38%30.04 "Hg10 mi
12:50 PM90 °FSunny.2 mph43%30.07 "Hg10 mi
12:20 PM90 °FSunny.1 mph43%30.07 "Hg10 mi
11:50 AM86 °FSunny.2 mph49%30.07 "Hg10 mi
11:20 AM82 °FSunny.2 mph55%30.07 "Hg10 mi
10:50 AM82 °FSunny.2 mph58%30.07 "Hg10 mi
10:20 AM79 °FSunny.2 mph61%30.07 "Hg10 mi
9:50 AM77 °FSunny.2 mph65%30.07 "Hg10 mi
9:20 AM75 °FSunny.1 mph69%30.07 "Hg10 mi
8:50 AM73 °FSunny.2 mph78%30.07 "Hg10 mi
8:20 AM72 °FSunny.3 mph83%30.07 "Hg10 mi
7:50 AM72 °FSunny.1 mph88%30.07 "Hg10 mi
7:20 AM68 °FClear.1 mph94%30.07 "Hg10 mi
6:50 AM64 °FClear.No wind100%30.07 "Hg10 mi
8:50 PM
Fri, Aug 26
81 °FSunny.1 mph58%30.01 "Hg10 mi
8:20 PM84 °FSunny.1 mph51%30.01 "Hg10 mi
7:50 PM90 °FSunny.3 mph38%30.01 "Hg10 mi
7:20 PM91 °FSunny.3 mph36%30.01 "Hg10 mi
6:50 PM93 °FPassing clouds.5 mph32%30.01 "HgN/A
6:20 PM93 °FSunny.2 mph32%30.01 "Hg10 mi
5:50 PM95 °FSunny.2 mph32%30.01 "Hg10 mi
5:20 PM95 °FSunny.2 mph32%30.01 "Hg10 mi
4:50 PM93 °FSunny.2 mph32%30.01 "Hg10 mi
4:20 PM93 °FSunny.3 mph34%30.01 "Hg10 mi
3:50 PM91 °FSunny.3 mph34%30.01 "Hg10 mi
3:20 PM91 °FSunny.2 mph36%30.01 "Hg10 mi
Weather by CustomWeather, © 2016

See weather overviewHow to use our weather pages